121  
ASUS44 KMOB 260712  
RWRMOB  
REGIONAL WEATHER ROUNDUP  
NATIONAL WEATHER SERVICE MOBILE AL  
200 AM CDT WED APR 26 2017  
 
NOTE: "FAIR" INDICATES FEW OR NO CLOUDS BELOW 12,000 FEET WITH NO  
SIGNIFICANT WEATHER AND/OR S TO VISIBILITY
.  
 
* THESE STATIONS ARE PART OF THE UNIVERSITY OF SOUTH ALABAMA  
MESONET AND ARE NOT UNDER NWS OR FAA QUALITY CONTROL.
 
 
ALZ061>064-260800-  
COASTAL ALABAMA  
 
CITY SKY/WX TMP DP RH WIND PRES REMARKS
 
MOBILE REG APT CLEAR 60 56 86 S5 29.76F  
BROOKLEY FIELD CLEAR 67 59 75 S3 29.78F  
USA CAMPUS* N/A 61 57 88 CALM 29.76F  
DOG RIVER* N/A 64 59 82 S3 30.44  
 
 
CITY SKY/WX TMP DP RH WIND PRES REMARKS
 
GULF SHORES CLEAR 67 59 75 S7 29.77F  
 

 
 
ALZ051>060-260800-  
INTERIOR SOUTHWEST AND SOUTH CENTRAL ALABAMA  
 
CITY SKY/WX TMP DP RH WIND PRES REMARKS
 
GREENVILLE CLEAR 60 55 83 S5 29.77F  
EVERGREEN CLEAR 57 54 89 CALM 29.78F  
ATMORE* N/A 61 57 88 S2 29.79F  
ANDALUSIA/OPP CLEAR 59 56 89 CALM 29.78F  
ANDALUSIA* N/A 61 57 88 S3 29.78F  
FLORALA APT CLEAR 58 55 90 CALM 29.80F  
FLORALA* N/A 55 55 100 CALM 30.44F  
 

 
 
FLZ001>006-260800-  
WESTERN FLORIDA PANHANDLE  
 
CITY SKY/WX TMP DP RH WIND PRES REMARKS
 
PENSACOLA CLEAR 67 58 72 S6 29.77F  
NAS PENSACOLA CLEAR 69 57 65 S12 29.77F  
MILTON LGT RAIN 60 58 92 SW3 29.77F  
WHTNG S FIELD CLEAR 63 59 87 S3 29.78F  
 
 
CITY SKY/WX TMP DP RH WIND PRES REMARKS
 
JAY* N/A 61 55 82 SE3 29.78F  
DUKE FIELD CLEAR 57 55 94 S3 29.78F  
CRESTVIEW CLEAR 55 53 93 CALM 29.80F  
VALPARAISO CLEAR 68 59 73 CALM 29.78F  
DESTIN CLEAR 73 63 70 SW6 29.79F  
 

 
 
MSZ076-079-260800-  
INTERIOR SOUTHEAST MISSISSIPPI  
 
CITY SKY/WX TMP DP RH WIND PRES REMARKS
 
LEAKESVILLE* NOT AVBL  
AGRICOLA* N/A 61 59 94 CALM 29.74  
 

 
 
MARINE OBSERVATIONS  
 
STATION/POSITION TIME TEMP WIND PRES WAVE
 
AIR SEA DIR/SP/G HT/PER  
(UTC) (F) (DEG/KT/KT) (MB) (FT/S)  
PASCAGOULA 0642 71 190/ 11/ 15 1007.7F  
PETIT BOIS ISLND 0642 71 190/ 14/ 17 1008.6F  
GRAND BAY 0545 71 200/ 11 1009.0F  
KATRINA CUT 0630 71 190/ 14 1008.1F  
CEDAR POINT 0630 71 200/ 14 1007.8F  
E DAUPHIN ISLAND 0600 71 180/ 13/ 15 1008.3F  
MIDDLE BAY LIGHT 0630 71 190/ 16 1008.5F  
USCG MOBILE BAY 0642 66 74 210/ 4/ 6 1008.5F  
STATE DOCKS 0642 68 75 1007.8F  
MEAHER PARK 0630 71 180/ 12 1007.8F  
FORT MORGAN 0642 71 200/ 14/ 16 N/A  
12 S ORANGE BCH 0650 71 74 200/ 14/ 17 1007.9F 2/ 4  
PENSACOLA BAY 0642 71 73 180/ 1/ 4 1008.5F  
64 S DAUPHIN ISL 0650 72 74 180/ 14/ 17 1008.5F 2/ 3  
67 S FORT MORGAN 0630 70 190/ 14 1008.8F  
 

 
 
SELECTED LOCATIONS ACROSS THE REGION  
 
CITY SKY/WX TMP DP RH WIND PRES REMARKS
 
NEW ORLEANS CLEAR 68 61 78 S7 29.71F  
GULFPORT CLOUDY 71 59 65 S10 29.74F  
PASCAGOULA AP PTCLDY 66 58 75 S5 29.75F  
PASCAGOULA* NOT AVBL  
HATTIESBURG CLEAR 61 57 87 S5 29.74F  
LAUREL CLEAR 61 55 82 S7 29.74F  
MERIDIAN CLEAR 60 58 92 SW6 29.72F  
JACKSON CLEAR 64 58 80 S12 29.69F  
MONTGOMERY CLEAR 63 54 72 S5 29.76F  
TROY CLEAR 56 55 97 CALM 29.79F  
ASHFORD* N/A 61 57 88 S3 29.78F  
DOTHAN CLEAR 63 60 90 SW6 29.83F  
PANAMA CITY CLEAR 57 55 93 CALM 29.79F  
 

 
 
 
 
CLICK HERE TO GO TO PREVIOUS BULLETINS.

The Nexlab AL Page
The Nexlab FL Page
The Nexlab MS Page Main Text Page